Location: Newark
(7.0858°N, 171.3717°E)
Time: 12:50:25
(UTC+00:00)

Vanguard 1 Rocket - Pass Details

Date: 26 November 2020
Orbit: 655 x 4222 km, 34.3° (Epoch: 23 January)

Event Time Altitude Azimuth Distance (km) Brightness Sun altitude
Rises 12:38:47 0° 243° (WSW) 7,370 12.1 -75.4°
Reaches altitude 10° 12:43:15 10° 245° (WSW) 6,677 11.7 -75.1°
Enters shadow 12:46:14 17° 247° (WSW) 6,245 11.5 -74.8°
Exits shadow 13:28:06 18° 44° (NE) 5,891 11.4 -68.8°
Drops below altitude 10° 13:31:07 10° 47° (NE) 6,327 11.6 -68.2°
Sets 13:35:17 0° 50° (NE) 6,982 12.0 -67.4°
